Overview Statistics Trail Chart Weather Telemetry Raw packets
 

This is the latest recevied weather packets stored in our database for station/object YM2KA-13. If no packets are shown the sender has not sent any weather packets the latest 10 day(s).

<< 81 82 83 84 85 86 87 >>
Time Temp. Humidity Pressure Rain* Wind** Luminosity Snow
1787933415 19.44° C 57% 1007.3 hPa 0 mm - - -
1787933283 19.44° C 57% 1007.3 hPa 0 mm - - -
1787932815 19.44° C 56% 1007.3 hPa 0 mm - - -
1787932379 19.44° C 54% 1007.2 hPa 0 mm - - -
1787932217 19.44° C 53% 1007.1 hPa 0 mm - - -
1787931618 20° C 53% 1007 hPa 0 mm - - -
1787931486 20° C 54% 1006.9 hPa 0 mm - - -
1787931022 20° C 57% 1006.8 hPa 0 mm - - -
1787930583 20.56° C 57% 1006.6 hPa 0 mm - - -
1787930410 20.56° C 56% 1006.6 hPa 0 mm - - -
1787929812 21.11° C 57% 1006.4 hPa 0 mm - - -
1787929679 21.11° C 57% 1006.4 hPa 0 mm - - -
1787929212 21.11° C 56% 1006.3 hPa 0 mm - - -
1787928786 21.11° C 55% 1006 hPa 0 mm - - -
1787928613 21.67° C 54% 1005.9 hPa 0 mm - - -
1787928014 22.22° C 51% 1005.7 hPa 0 mm - - -
1787927882 22.22° C 51% 1005.7 hPa 0 mm - - -
1787927414 22.22° C 51% 1005.5 hPa 0 mm - - -
1787926978 22.22° C 51% 1005.5 hPa 0 mm - - -
1787926816 22.22° C 51% 1005.4 hPa 0 mm - - -
1787926217 22.78° C 49% 1005.1 hPa 0 mm - - -
1787926085 22.78° C 48% 1005 hPa 0 mm - - -
1787925618 23.33° C 47% 1005 hPa 0 mm - - -
1787925181 23.89° C 45% 1005 hPa 0 mm - - -
1787925019 23.89° C 44% 1005 hPa 0 mm - - -

* Rain latest hour (hover to see other rain measurements)
** Current wind speed in m/s (hover to see current wind gust speed)